Flag for Canada Weather past 2 weeks in Summerside, Prince Edward Island, Canada

Now
64 °F

Mild.


Feels Like: 64 °F
Forecast: 61 / 72 °F
Wind: 14 mph from South

Location: Summerside Airport

Current Time: Jul 2, 2015 at 5:23:27 AM

Latest Report: Jul 2, 2015 at 5:00 AM


Visibility: N/A

Pressure: 29.73 "Hg

Humidity: 96%

Dew point: 63 °F

Location of SummersideLocation

Historic Weather in Summerside — Graph

°F

Summerside temperature yesterday

Maximum temperature yesterday: 76 °F (at 3:00 PM)
Minimum temperature yesterday: 55 °F (at 6:00 AM)
Average temperature yesterday: 66 °F

Past Weeks' High & Low Weather Summary

 TemperatureHumidityPressure
High76 °F (Jul 1, 3:00 PM)100% (Jun 22, 10:00 AM)30.19 "Hg (Jun 22, 10:00 AM)
Low42 °F (Jun 20, 3:00 AM)40% (Jun 17, 4:00 PM)29.65 "Hg (Jun 24, 7:00 AM)
Average59 °F84%29.93 "Hg
* Reported Jun 17 4:00 AM — Jul 2 4:00 AM, Summerside, Weather by CustomWeather, © 2015

Note: Actual official high and low records may vary slightly from our data, if they occured in-between our weather recording intervals... More about our weather records

Advertising

Summerside weather history for previous 24 hours

 ConditionsComfort  
Time TempWeatherWind HumidityBarometerVisibility
4:00 AM
Thu, Jul 2
64 °FMild.16 mph100%29.73 "HgN/A
3:00 AM64 °FMild.15 mph96%29.75 "HgN/A
2:00 AM64 °FMild.17 mph94%29.75 "HgN/A
1:00 AM65 °FMild.16 mph88%29.76 "HgN/A
12:00 AM65 °FMild.13 mph86%29.78 "HgN/A
11:00 PM
Wed, Jul 1
66 °FMild.14 mph85%29.80 "HgN/A
10:00 PM67 °FMild.12 mph83%29.82 "HgN/A
9:00 PM71 °FMild.12 mph77%29.82 "HgN/A
8:00 PM73 °FMild.6 mph81%29.82 "HgN/A
7:00 PM75 °FMild.10 mph75%29.83 "HgN/A
6:00 PM74 °FMild.9 mph77%29.86 "HgN/A
5:00 PM75 °FMild.10 mph77%29.88 "HgN/A
4:00 PM75 °FMild.12 mph79%29.89 "HgN/A
3:00 PM76 °FMild.9 mph73%29.92 "HgN/A
2:00 PM75 °FMild.10 mph68%29.93 "HgN/A
1:00 PM73 °FMild.10 mph81%29.96 "HgN/A
12:00 PM71 °FMild.13 mph85%29.97 "HgN/A
11:00 AM69 °FMild.7 mph90%29.97 "HgN/A
10:00 AM65 °FMild.9 mph90%29.99 "HgN/A
9:00 AM63 °FMild.7 mph93%29.99 "HgN/A
8:00 AM61 °FCool.8 mph95%29.99 "HgN/A
7:00 AM59 °FCool.7 mph98%29.98 "HgN/A
6:00 AM55 °FCool.6 mph97%29.98 "HgN/A
5:00 AM56 °FCool.9 mph98%29.99 "HgN/A
Weather by CustomWeather, © 2015

See weather overviewHow to use our weather pages